Location: Luxembourg
(49.6117°N, 6.1300°E)
Time: 11:55:30
(UTC+01:00)

Tiangong 2 - Pass Details

Date: 24 January 2019
Orbit: 380 x 390 km, 42.8° (Epoch: 21 February)

Event Time Altitude Azimuth Distance (km) Brightness Sun altitude
Exits shadow 06:44:58 15° 222° (SW) 1,137 3.2 -15.0°
Maximum altitude 06:46:06 18° 195° (SSW) 1,029 3.2 -14.8°
Drops below altitude 10° 06:48:21 10° 149° (SSE) 1,410 4.5 -14.4°
Sets 06:50:50 0° 130° (SE) 2,265 6.2 -14.0°
